TimeAKDT,TemperatureF,Dew PointF,Humidity,Sea Level PressureIn,VisibilityMPH,Wind Direction,Wind SpeedMPH,Gust SpeedMPH,PrecipitationIn,Events,Conditions,WindDirDegrees,DateUTC
12:53 AM,33.1,30.0,89,29.96,10.0,Calm,Calm,-,N/A,,Clear,0,2013-09-16 08:53:00
1:53 AM,32.0,30.0,92,29.95,10.0,Calm,Calm,-,N/A,,Clear,0,2013-09-16 09:53:00
2:53 AM,30.9,28.0,89,29.93,10.0,Calm,Calm,-,N/A,,Clear,0,2013-09-16 10:53:00
3:53 AM,28.9,27.0,92,29.93,10.0,Calm,Calm,-,N/A,,Clear,0,2013-09-16 11:53:00
4:53 AM,28.9,26.1,89,29.91,10.0,Calm,Calm,-,N/A,,Clear,0,2013-09-16 12:53:00
5:53 AM,27.0,25.0,92,29.90,10.0,Calm,Calm,-,N/A,,Clear,0,2013-09-16 13:53:00
6:53 AM,28.0,25.0,88,29.89,10.0,Calm,Calm,-,N/A,,Clear,0,2013-09-16 14:53:00
7:53 AM,28.0,25.0,88,29.88,10.0,Calm,Calm,-,N/A,,Clear,0,2013-09-16 15:53:00
8:53 AM,32.0,30.0,92,29.87,10.0,Calm,Calm,-,N/A,,Clear,0,2013-09-16 16:53:00
9:53 AM,37.9,30.0,73,29.86,10.0,Calm,Calm,-,N/A,,Clear,0,2013-09-16 17:53:00
10:53 AM,43.0,30.0,60,29.84,10.0,Calm,Calm,-,N/A,,Clear,0,2013-09-16 18:53:00
11:53 AM,48.0,28.0,46,29.82,10.0,East,9.2,17.3,N/A,,Clear,80,2013-09-16 19:53:00
12:53 PM,50.0,27.0,41,29.81,10.0,ENE,12.7,17.3,N/A,,Clear,70,2013-09-16 20:53:00
1:53 PM,51.1,26.1,38,29.78,10.0,East,10.4,-,N/A,,Clear,80,2013-09-16 21:53:00
2:53 PM,54.0,26.1,34,29.75,10.0,East,11.5,19.6,N/A,,Clear,80,2013-09-16 22:53:00
3:53 PM,55.9,26.1,32,29.73,10.0,NE,6.9,-,N/A,,Clear,40,2013-09-16 23:53:00
4:53 PM,55.9,25.0,30,29.72,10.0,NE,10.4,16.1,N/A,,Clear,50,2013-09-17 00:53:00
5:53 PM,55.0,23.0,29,29.70,10.0,NNE,8.1,-,N/A,,Clear,20,2013-09-17 01:53:00
6:53 PM,51.1,27.0,39,29.70,10.0,North,10.4,-,N/A,,Clear,360,2013-09-17 02:53:00
7:53 PM,48.9,26.1,41,29.72,10.0,NE,10.4,-,N/A,,Clear,40,2013-09-17 03:53:00
8:53 PM,46.0,26.1,46,29.72,10.0,NNE,6.9,17.3,N/A,,Clear,30,2013-09-17 04:53:00
9:53 PM,44.1,26.1,49,29.72,10.0,Calm,Calm,-,N/A,,Clear,0,2013-09-17 05:53:00
10:53 PM,43.0,25.0,49,29.71,10.0,NNE,9.2,-,N/A,,Clear,20,2013-09-17 06:53:00
11:53 PM,42.1,25.0,51,29.71,10.0,North,6.9,-,N/A,,Clear,10,2013-09-17 07:53:00